Location: Erdweis
(48.5167°N, 15.3500°E)
Time: 13:05:24
(UTC+00:00)

USA 234 - Pass Details

Date: 24 January 2021
Orbit: 1100 x 1107 km, 123.0° (Epoch: 01 March)

Event Time Altitude Azimuth Distance (km) Brightness Sun altitude
Exits shadow 19:16:49 57° 332° (NNW) 1,282 3.6 -34.8°
Drops below altitude 10° 19:22:04 10° 306° (NW) 2,967 6.2 -35.7°
Sets 19:24:34 0° 304° (NW) 3,928 7.0 -36.1°
